Location: Livorno
(43.5500°N, 10.3170°E)
Time: 10:48:23
(UTC+01:00)

ISS - Visible Passes

Search period start: 12 December 2018 00:00
Search period end: 22 December 2018 00:00
Orbit: 401 x 408 km, 51.6° (Epoch: 12 December)

Date Brightness Start Highest point End Pass type
(mag) Time Alt. Az. Time Alt. Az. Time Alt. Az.
12 Dec -3.9 17:22:24 10° NW 17:25:40 74° NNE 17:28:54 10° ESE visible
12 Dec -0.8 18:59:50 10° W 19:01:46 15° SW 19:03:33 11° SSW visible
13 Dec -1.6 18:07:00 10° WNW 18:09:48 26° SW 18:12:35 10° SSE visible
14 Dec -2.8 17:14:34 10° WNW 17:17:45 49° SW 17:20:53 10° SE visible
15 Dec -0.4 18:00:19 10° WSW 18:01:36 12° SW 18:02:53 10° SSW visible
